Date String (YYYY-MM-DD hh:mm:ss) UTC,Instrument flags,Ambient pressure (hPa),Sample flow (lpm),Bypass flow (lpm),Sample temperature (°C),Ambient temperature (°C),ASC tube jacket temperature (°C),LED temperature (°C),Box temperature (°C),Sample RH (%),Span deviation,Mass concentration (μg/m³),Mass concentration (μg/m³),Mass concentration (μg/m³)
DateTimeUTC,F1_M11,P_M11,Q1_M11,Q2_M11,T1_M11,T2_M11,T3_M11,T4_M11,T5_M11,U1_M11,ZSPAN_M11,X0_M11,X2_M11,X1_M11
2022-07-11 02:00:00,,0830.2,5.00,0.00,41.5,39.8,00.0,50.1,42.4,10.6,0000.0,0003.66,0002.71,0002.33
2022-07-11 02:01:00,,0830.1,5.00,0.00,41.4,39.8,00.0,50.1,42.4,10.4,0000.0,0003.96,0002.73,0002.31
2022-07-11 02:02:00,,0830.1,5.02,0.00,41.4,39.8,00.0,50.1,42.4,10.2,0000.0,0004.21,0002.70,0002.24
2022-07-11 02:03:00,,0830.1,4.99,0.00,41.4,39.8,00.0,50.1,42.3,10.3,0000.0,0004.16,0002.63,0002.18
2022-07-11 02:04:00,,0830.1,5.00,0.00,41.4,39.8,00.0,50.1,42.3,10.2,0000.0,0004.05,0002.55,0002.12
2022-07-11 02:05:00,,0830.0,5.01,0.00,41.4,39.8,00.0,50.1,42.3,10.2,0000.0,0004.41,0002.49,0002.08
2022-07-11 02:06:00,,0829.9,5.01,0.00,41.4,39.7,00.0,50.1,42.3,10.2,0000.0,0004.79,0002.47,0002.05
2022-07-11 02:07:00,,0829.9,5.00,0.00,41.4,39.7,00.0,50.1,42.3,10.1,0000.0,0004.75,0002.38,0001.99
2022-07-11 02:08:00,,0829.9,5.00,0.00,41.4,39.7,00.0,50.0,42.3,10.1,0000.0,0004.69,0002.31,0001.93
2022-07-11 02:09:00,,0829.8,4.99,0.00,41.4,39.7,00.0,50.0,42.3,10.1,0000.0,0004.71,0002.27,0001.87
2022-07-11 02:10:00,,0829.7,5.01,0.00,41.3,39.7,00.0,50.0,42.3,10.2,0000.0,0004.87,0002.27,0001.83
2022-07-11 02:11:00,,0829.7,5.00,0.00,41.3,39.7,00.0,50.0,42.3,10.2,0000.0,0004.80,0002.24,0001.79
2022-07-11 02:12:00,,0829.7,5.00,0.00,41.3,39.7,00.0,50.0,42.2,10.3,0000.0,0004.50,0002.21,0001.79
2022-07-11 02:13:00,,0829.7,4.99,0.00,41.3,39.6,00.0,50.0,42.2,10.2,0000.0,0004.21,0002.23,0001.81
2022-07-11 02:14:00,,0829.6,5.00,0.00,41.3,39.6,00.0,50.0,42.2,10.3,0000.0,0004.13,0002.23,0001.82
2022-07-11 02:15:00,,0829.6,5.00,0.00,41.3,39.6,00.0,50.0,42.2,10.4,0000.0,0004.29,0002.29,0001.84
2022-07-11 02:16:00,,0829.6,5.00,0.00,41.3,39.6,00.0,49.9,42.2,10.4,0000.0,0004.11,0002.36,0001.85
2022-07-11 02:17:00,,0829.6,5.00,0.00,41.3,39.6,00.0,49.9,42.2,10.4,0000.0,0003.59,0002.33,0001.85
2022-07-11 02:18:00,,0829.6,5.00,0.00,41.3,39.6,00.0,49.9,42.2,10.5,0000.0,0003.53,0002.34,0001.87
2022-07-11 02:19:00,,0829.6,5.01,0.00,41.2,39.6,00.0,49.9,42.2,10.4,0000.0,0003.73,0002.36,0001.89
2022-07-11 02:20:00,,0829.7,5.01,0.00,41.2,39.6,00.0,49.9,42.2,10.5,0000.0,0004.33,0002.40,0001.92
2022-07-11 02:21:00,,0829.8,4.99,0.00,41.2,39.6,00.0,49.9,42.2,10.5,0000.0,0004.13,0002.37,0001.93
2022-07-11 02:22:00,,0829.8,5.00,0.00,41.2,39.6,00.0,49.9,42.2,10.6,0000.0,0004.23,0002.41,0001.96
2022-07-11 02:23:00,,0829.9,5.00,0.00,41.2,39.6,00.0,49.9,42.2,10.8,0000.0,0004.36,0002.45,0001.97
2022-07-11 02:24:00,,0829.9,4.99,0.00,41.2,39.6,00.0,49.9,42.2,11.6,0000.0,0004.48,0002.53,0002.03
2022-07-11 02:25:00,,0829.8,5.00,0.00,41.2,39.7,00.0,49.9,42.2,12.1,0000.0,0005.63,0002.75,0002.20
2022-07-11 02:26:00,,0830.0,5.00,0.00,41.2,39.7,00.0,49.8,42.1,12.1,0000.0,0006.35,0002.90,0002.37
2022-07-11 02:27:00,,0830.0,4.99,0.00,41.2,39.7,00.0,49.8,42.2,12.0,0000.0,0006.34,0003.01,0002.53
2022-07-11 02:28:00,,0830.0,5.01,0.00,41.2,39.7,00.0,49.8,42.2,11.7,0000.0,0006.56,0003.15,0002.68
2022-07-11 02:29:00,,0830.0,5.01,0.00,41.2,39.7,00.0,49.8,42.1,12.0,0000.0,0006.74,0003.24,0002.81
2022-07-11 02:30:00,,0830.1,4.98,0.00,41.2,39.7,00.0,49.8,42.1,12.0,0000.0,0006.81,0003.34,0002.96
2022-07-11 02:31:00,,0830.1,5.00,0.00,41.2,39.7,00.0,49.8,42.1,12.1,0000.0,0006.48,0003.44,0003.12
2022-07-11 02:32:00,,0830.1,5.01,0.00,41.2,39.6,00.0,49.8,42.1,12.1,0000.0,0006.84,0003.56,0003.21
2022-07-11 02:33:00,,0830.2,5.00,0.00,41.2,39.6,00.0,49.8,42.1,12.1,0000.0,0007.08,0003.67,0003.30
2022-07-11 02:34:00,,0830.3,5.00,0.00,41.2,39.6,00.0,49.8,42.1,12.0,0000.0,0007.40,0003.78,0003.38
2022-07-11 02:35:00,,0830.2,5.01,0.00,41.2,39.6,00.0,49.8,42.1,12.0,0000.0,0007.47,0003.85,0003.44
2022-07-11 02:36:00,,0830.2,5.00,0.00,41.1,39.6,00.0,49.8,42.1,12.0,0000.0,0006.60,0003.82,0003.43
2022-07-11 02:37:00,,0830.3,4.99,0.00,41.1,39.6,00.0,49.8,42.1,11.9,0000.0,0006.10,0003.83,0003.43
2022-07-11 02:38:00,,0830.4,5.00,0.00,41.1,39.6,00.0,49.8,42.1,12.1,0000.0,0006.39,0003.85,0003.44
2022-07-11 02:39:00,,0830.3,5.00,0.00,41.1,39.6,00.0,49.8,42.1,12.0,0000.0,0006.46,0003.88,0003.45
2022-07-11 02:40:00,,0830.3,5.00,0.00,41.1,39.6,00.0,49.8,42.1,11.9,0000.0,0006.51,0003.89,0003.46
2022-07-11 02:41:00,,0830.3,5.00,0.00,41.1,39.6,00.0,49.8,42.1,12.0,0000.0,0006.51,0003.89,0003.46
2022-07-11 02:42:00,,0830.3,5.00,0.00,41.1,39.6,00.0,49.8,42.1,12.1,0000.0,0006.38,0003.88,0003.47
2022-07-11 02:43:00,,0830.3,5.00,0.00,41.1,39.6,00.0,49.7,42.1,12.0,0000.0,0006.30,0003.87,0003.47
2022-07-11 02:44:00,,0830.2,4.99,0.00,41.1,39.6,00.0,49.7,42.1,12.2,0000.0,0006.24,0003.87,0003.48
2022-07-11 02:45:00,,0830.2,5.00,0.00,41.1,39.6,00.0,49.7,42.1,12.2,0000.0,0006.11,0003.85,0003.49
2022-07-11 02:46:00,,0830.2,5.00,0.00,41.1,39.6,00.0,49.7,42.1,12.0,0000.0,0006.45,0003.88,0003.49
2022-07-11 02:47:00,,0830.2,5.00,0.00,41.1,39.6,00.0,49.7,42.1,11.7,0000.0,0006.75,0003.89,0003.49
2022-07-11 02:48:00,,0830.2,5.01,0.00,41.1,39.6,00.0,49.7,42.1,11.9,0000.0,0006.97,0003.92,0003.49
2022-07-11 02:49:00,,0830.2,5.01,0.00,41.1,39.6,00.0,49.7,42.1,11.8,0000.0,0007.10,0003.96,0003.49
2022-07-11 02:50:00,,0830.3,5.00,0.00,41.1,39.6,00.0,49.7,42.1,11.7,0000.0,0007.45,0003.98,0003.49
2022-07-11 02:51:00,,0830.2,5.00,0.00,41.1,39.6,00.0,49.7,42.1,11.8,0000.0,0007.73,0004.00,0003.51
2022-07-11 02:52:00,,0830.2,4.99,0.00,41.1,39.6,00.0,49.7,42.1,11.8,0000.0,0007.82,0004.04,0003.52
2022-07-11 02:53:00,,0830.2,5.01,0.00,41.1,39.6,00.0,49.7,42.1,11.8,0000.0,0007.89,0004.06,0003.52
2022-07-11 02:54:00,,0830.2,4.99,0.00,41.1,39.6,00.0,49.7,42.1,11.9,0000.0,0008.25,0004.09,0003.52
2022-07-11 02:55:00,,0830.2,5.00,0.00,41.1,39.6,00.0,49.7,42.1,12.0,0000.0,0009.23,0004.10,0003.52
2022-07-11 02:56:00,,0830.2,5.01,0.00,41.1,39.6,00.0,49.7,42.0,11.9,0000.0,0010.27,0004.12,0003.52
2022-07-11 02:57:00,,0830.2,4.99,0.00,41.1,39.6,00.0,49.7,42.0,12.1,0000.0,0010.62,0004.13,0003.54
2022-07-11 02:58:00,,0830.2,5.00,0.00,41.1,39.5,00.0,49.7,42.0,12.2,0000.0,0011.19,0004.20,0003.56
2022-07-11 02:59:00,,0830.2,5.01,0.00,41.0,39.5,00.0,49.7,42.0,12.2,0000.0,0011.51,0004.22,0003.59
